This is the latest recevied weather packets stored in our database for station/object KC2WGU. If no packets are shown the sender has not sent any weather packets the latest 1 day(s).
| Time | Temp. | Humidity | Pressure | Rain* | Wind** | Luminosity | Snow |
|---|---|---|---|---|---|---|---|
| 1778029822 | 15° C | 83% | 1006.5 hPa | 0 mm | 2.24 m/s, 329° | 0 W/m² | - |
| 1778029222 | 15.56° C | 84% | 1006 hPa | 0 mm | 2.24 m/s, 319° | 0 W/m² | - |
| 1778028621 | 16.11° C | 85% | 1005.9 hPa | 0.25 mm | 1.34 m/s, 331° | 0 W/m² | - |
| 1778028022 | 16.11° C | 84% | 1005.4 hPa | 0.25 mm | 1.34 m/s, 293° | 0 W/m² | - |
| 1778027423 | 16.11° C | 83% | 1005.2 hPa | 0.25 mm | 1.34 m/s, 312° | 0 W/m² | - |
| 1778026821 | 16.67° C | 82% | 1005.2 hPa | 0.25 mm | 0.89 m/s, 308° | 0 W/m² | - |
| 1778026222 | 16.67° C | 82% | 1005.3 hPa | 0.25 mm | 1.34 m/s, 298° | 0 W/m² | - |
| 1778025623 | 16.67° C | 82% | 1004.7 hPa | 0.25 mm | 1.34 m/s, 304° | 1 W/m² | - |
| 1778025021 | 17.22° C | 79% | 1004.7 hPa | 0 mm | 2.68 m/s, 289° | 2 W/m² | - |
| 1778024423 | 17.22° C | 77% | 1004.7 hPa | 0 mm | 2.24 m/s, 276° | 6 W/m² | - |
| 1778023823 | 17.78° C | 76% | 1004.6 hPa | 0 mm | 1.34 m/s, 289° | 7 W/m² | - |
| 1778023222 | 17.78° C | 76% | 1004.3 hPa | 0 mm | 1.34 m/s, 265° | 26 W/m² | - |
| 1778022622 | 17.78° C | 76% | 1004.3 hPa | 0 mm | 1.34 m/s, 287° | 58 W/m² | - |
| 1778022024 | 17.78° C | 78% | 1004.3 hPa | 0 mm | 1.34 m/s, 260° | 95 W/m² | - |
| 1778021422 | 17.22° C | 78% | 1004.1 hPa | 0 mm | 1.79 m/s, 281° | 84 W/m² | - |
| 1778020822 | 17.22° C | 79% | 1004.1 hPa | 0 mm | 2.24 m/s, 226° | 94 W/m² | - |
| 1778020222 | 17.78° C | 80% | 1004.2 hPa | 0 mm | 1.34 m/s, 216° | 105 W/m² | - |
| 1778019622 | 17.22° C | 81% | 1004.2 hPa | 0.25 mm | 2.24 m/s, 242° | 153 W/m² | - |
| 1778019023 | 16.67° C | 82% | 1004.3 hPa | 0.25 mm | 1.79 m/s, 228° | 145 W/m² | - |
| 1778018422 | 16.67° C | 82% | 1004.4 hPa | 0.25 mm | 1.34 m/s, 231° | 87 W/m² | - |
| 1778017822 | 16.67° C | 82% | 1004.4 hPa | 0.25 mm | 2.68 m/s, 229° | 70 W/m² | - |
| 1778017223 | 16.67° C | 82% | 1004.4 hPa | 0.76 mm | 2.68 m/s, 240° | 59 W/m² | - |
| 1778016623 | 16.67° C | 82% | 1004.5 hPa | 1.02 mm | 3.13 m/s, 261° | 135 W/m² | - |
| 1778016023 | 16.67° C | 82% | 1004.8 hPa | 0.76 mm | 3.13 m/s, 259° | 55 W/m² | - |
| 1778015421 | 16.67° C | 83% | 1004.4 hPa | 0.76 mm | 3.58 m/s, 274° | 85 W/m² | - |
* Rain latest hour (hover to see other rain measurements)
** Current wind speed in m/s (hover to see current wind gust speed)